{"data":{"norad_id":63083,"epoch":"2026-09-21T06:35:23.464896Z","epoch_age_seconds":95358,"freshness":"FRESH","line1":"1 63083U 25037G   26264.27457714  .00013672  00000+0  47905-3 0  9990","line2":"2 63083  70.0036 218.7340 0002506 258.4110 101.6784 15.29590636 87825","mean_motion":15.29590636,"eccentricity":0.0002506,"inclination_deg":70.0036,"raan_deg":218.734,"arg_perigee_deg":258.411,"mean_anomaly_deg":101.6784,"bstar":0.00047905,"rev_number":8782,"period_min":94.142835743668,"perigee_km":475.31721835666,"apogee_km":478.75303062546,"semimajor_km":6855.1721244911,"source":"CELESTRAK","updated_at":"2026-09-22T09:00:49.758275Z"}}